Weather History for CYFS - May, 2013

Change the Weather History Date:

Monday, May 27, 2013

  Actual Average Record
Temperature  
Mean Temperature 64 °F -  
Max Temperature 74 °F 59 °F 84 °F (2012)
Min Temperature 53 °F 39 °F 23 °F (2002)
Degree Days  
Heating Degree Days 2    
Growing Degree Days 14 (Base 50)    
Moisture  
Dew Point 39 °F    
Average Humidity 39    
Maximum Humidity 54    
Minimum Humidity 20    
Precipitation  
Precipitation 0.00 in - - ()
Sea Level Pressure  
Sea Level Pressure 29.88 in    
Wind  
Wind Speed 5 mph ()    
Max Wind Speed 12 mph    
Max Gust Speed 17 mph    
Visibility 15.0 miles    
Events      
Averages and records for this station are not official NWS values.
T = Trace of Precipitation, MM = Missing Value Source: Averaged Metar Reports

Daily Weather History Graph

Daily Weather History Graph

Search for Another Location

Airport or City:

Trip Planner

Search our weather history database for the weather conditions in past years. The results will help you decide how hot, cold, wet, or windy it might be!

Date:

Astronomy

May. 27, 2013 Rise Set
Actual Time 4:43 AM MDT 11:22 PM MDT
Civil Twilight 3:03 AM MDT 1:06 AM MDT
Nautical Twilight Sun does not rise Sun does not rise
Astronomical Twilight Sun does not rise Sun does not rise
Moon 12:55 AM MDT (5/27) 7:47 AM MDT (5/27)
Length of Visible Light 22h 02m
Length of Day
18h 38m
Waning Gibbous, 90% of the Moon is Illuminated
May 27
Waning Gibbous
May 31
Last Quarter
Jun 8
New
Jun 16
First Quarter
Jun 23
Full

Hourly Weather History & Observations

Time (MDT) Temp. Dew Point Humidity Pressure Visibility Wind Dir Wind Speed Gust Speed Precip Events Conditions
12:00 AM 66 °F 42 °F 30% 29.94 in 15 mi SE 4.6 mph - -   Mostly Cloudy
12:00 AM 66.2 °F 42.8 °F 43% 29.94 in 15.0 mi SE 4.6 mph - N/A   Mostly Cloudy
1:00 AM 64.4 °F 41.0 °F 42% 29.94 in 15.0 mi SSE 11.5 mph - N/A   Mostly Cloudy
2:00 AM 60.8 °F 35.6 °F 39% 29.95 in 15.0 mi East 8.1 mph - N/A   Mostly Cloudy
3:00 AM 59.0 °F 32.0 °F 36% 29.95 in 15.0 mi ESE 3.5 mph - N/A   Mostly Cloudy
4:00 AM 59.0 °F 30.2 °F 34% 29.95 in 15.0 mi Calm Calm - N/A   Mostly Cloudy
5:00 AM 57.2 °F 32.0 °F 38% 29.95 in 15.0 mi Calm Calm - N/A   Mostly Cloudy
6:00 AM 55 °F 35 °F 34% 29.96 in 15 mi SSE 3.5 mph - -   Mostly Cloudy
6:00 AM 55.4 °F 35.6 °F 47% 29.96 in 15.0 mi SSE 3.5 mph - N/A   Mostly Cloudy
7:00 AM 55.4 °F 37.4 °F 51% 29.95 in 15.0 mi SSE 4.6 mph - N/A   Mostly Cloudy
8:00 AM 53.6 °F 37.4 °F 54% 29.94 in 15.0 mi ESE 8.1 mph - N/A   Mostly Cloudy
9:00 AM 57.2 °F 39.2 °F 51% 29.94 in 15.0 mi SE 5.8 mph - N/A   Scattered Clouds
10:00 AM 59.0 °F 39.2 °F 48% 29.91 in 15.0 mi SE 9.2 mph - N/A   Scattered Clouds
11:00 AM 60.8 °F 39.2 °F 45% 29.90 in 15.0 mi SE 8.1 mph - N/A   Mostly Cloudy
12:00 PM 63 °F 39 °F 30% 29.90 in 15 mi SE 6.9 mph - -   Mostly Cloudy
12:00 PM 62.6 °F 39.2 °F 42% 29.90 in 15.0 mi SE 6.9 mph - N/A   Mostly Cloudy
1:00 PM 66.2 °F 41.0 °F 40% 29.88 in 15.0 mi SE 10.4 mph - N/A   Mostly Cloudy
2:00 PM 68.0 °F 42.8 °F 40% 29.86 in 15.0 mi SSE 11.5 mph 17.3 mph N/A   Partly Cloudy
3:00 PM 71.6 °F 39.2 °F 31% 29.83 in 15.0 mi South 11.5 mph 17.3 mph N/A   Partly Cloudy
4:00 PM 73.4 °F 44.6 °F 36% 29.82 in 15.0 mi ESE 9.2 mph - N/A   Partly Cloudy
5:00 PM 73.4 °F 41.0 °F 31% 29.80 in 15.0 mi SSE 11.5 mph 17.3 mph N/A   Partly Cloudy
6:00 PM 74 °F 42 °F 20% 29.80 in 15 mi SE 9.2 mph - -   Scattered Clouds
6:00 PM 73.4 °F 41.0 °F 31% 29.80 in 15.0 mi SE 9.2 mph - N/A   Mostly Cloudy
7:00 PM 71.6 °F 42.8 °F 35% 29.78 in 15.0 mi ESE 5.8 mph - N/A   Mostly Cloudy
8:00 PM 69.8 °F 42.8 °F 38% 29.79 in 15.0 mi Calm Calm - N/A   Mostly Cloudy
9:00 PM 68.0 °F 42.8 °F 40% 29.81 in 15.0 mi Calm Calm - N/A   Mostly Cloudy
10:00 PM 66.2 °F 42.8 °F 43% 29.81 in 15.0 mi East 3.5 mph - N/A   Mostly Cloudy
11:00 PM 64.4 °F 39.2 °F 40% 29.82 in 15.0 mi SSE 3.5 mph - N/A   Mostly Cloudy